Showing default

ALOUETTE 1 (S-27), 424

Orbit data source: Space-Track

ALOUETTE 1 (S-27), 424 is a payload satellite owned by DRTE (CA) in LEO that was launched on Sat, 29 Sep 1962 UTC via a THOR AGENA B launch vehicle from the Air Force Western Test Range (AFWTR). Payload-class satellites include a variety of spacecraft equipped with specific instruments for various scientific and technological missions. These include communications satellites like Starlink; space stations such as the ISS; scientific satellites like the Hubble; Earth observation satellites from companies like Planet Labs, Umbra, and HawkEye 360; GPS; miniature CubeSats for education and research; and military/defense satellites.

Loading next visibility...
Identifier
424, 1962-049A
Orbit
LEO
Country
Flag of CACA
Related business
Manufacturer
DEHAVT/RCAV
Mission
Spacecraft
Bus & Motor
ALOUETTE, Unknown motor
Mass
145 kg wet, 145 kg dry
Launch date (UTC)
1962-09-29 (63 years ago)
Launch vehicle
THOR AGENA B
Launch site
Air Force Western Test Range (AFWTR)
Object type
Payload
Rocket body
Debris
Shape & HBR
Unknown
Radar Cross Section
Large (>1 m²)

Expand to show TLE details & history
Last TLE update: 1 day ago

TLE from 1 day ago
0 ALOUETTE 1 (S-27)
1 00424U 62049A   25287.57961671  .00000134  00000-0  14260-3 0  9991
2 00424  80.4652 139.4347 0023061 149.4431 210.8064 13.69537665147493
Epoch: 2025-10-14T13:54Z
TLE epoch observation values (Epoch: 2025-10-14T13:54:38.883Z)
Latitude
-0.00002°
Longitude
-92.59333°
Altitude
1,018.679 km
Speed
7.335 km/s
True Right ascension
09h 17m 44s
True Declination
0° 00' 00"
Sunlit
Object was in daylight at epoch
Visualization orbit readout
Latitude
Unknown
Longitude
Unknown
Altitude
Unknown
Speed
Unknown
Apparent Right ascension
Unknown
Apparent Declination
Unknown
Sunlit
N/A
Visualization observer readout
Local Sidereal Time
13:11:39
Azimuth
Unknown
Elevation
Unknown
Doppler factor
Unknown
Orbital elements
Apogee altitude
1,015.509 km
Perigee altitude
981.487 km
Semi-major axis
7,376.635 km
Eccentricity
0.00231
Inclination
80.4652°
RAAN
139.4347°
Arg. of periapsis
149.4431°
True anomaly
210.6714°
Mean anomaly
210.8064°
Eccentric anomaly
210.73887°
Mean motion
3.42575 °/min
Orbital period
105.09 mins
BSTAR
0.0001426
Loading maneuver chart data...
Computing Atmospheric mass density...
Loading historical data...
Loading historical data...
Loading historical data...
Loading historical data...
Loading historical data...
Loading historical data...
Loading historical data...
Other satellites on launch #49 in the year 1962 (1962-09-29 UTC)

Documentation

Showing up to 5 results
|